KF5JED-13 Weather Reports


time (UTC)temp
F
wind
direction
speed
knots
gust
knots
rain 1hr
in
rain 24hr
in
rain mn
in
humidity
%
barometer
mb
20260510204408 53 0 7.0 9.6 0.05 0.22 0.22 98 1024.0
20260510203905 53 59 8.7 12.2 0.05 0.22 0.22 97 1023.6
20260510203402 53 87 11.3 14.8 0.02 0.21 0.21 96 1023.1
20260510202857 53 74 7.8 11.3 0.02 0.21 0.21 95 1023.5
20260510202353 53 67 8.7 13.0 0.05 0.21 0.21 95 1024.1
20260510201849 53 79 7.0 9.6 0.02 0.20 0.20 94 1024.0
20260510201347 53 36 7.0 8.7 0.00 0.20 0.20 94 1024.2
20260510200843 52 10 5.2 9.6 0.02 0.20 0.20 93 1024.5
20260510200341 53 8 5.2 7.0 0.05 0.20 0.20 93 1023.9
20260510195831 53 20 6.1 12.2 0.09 0.20 0.20 92 1023.7
20260510195328 53 71 9.6 11.3 0.17 0.19 0.19 92 1023.4
20260510194823 52 58 8.7 12.2 0.24 0.18 0.18 91 1023.8
20260510194320 52 60 6.1 13.9 0.31 0.16 0.16 90 1024.1
20260510193815 52 60 10.4 14.8 0.42 0.13 0.13 89 1024.6
20260510193310 53 40 7.0 11.3 0.57 0.11 0.11 87 1024.7
20260510192807 53 13 5.2 8.7 0.33 0.06 0.06 86 1025.1
20260510192306 54 352 9.6 10.4 0.07 0.01 0.01 83 1025.1
20260510191758 54 49 5.2 15.6 0.00 0.00 0.00 82 1024.6
20260510191254 54 66 9.6 16.5 0.00 0.00 0.00 82 1023.9
20260510190752 54 72 12.2 22.6 0.00 0.00 0.00 82 1023.4
20260510190249 54 56 14.8 24.3 0.00 0.00 0.00 82 1023.2
20260510185745 55 59 14.8 27.8 0.00 0.00 0.00 81 1023.5
20260510185243 55 61 13.9 20.0 0.00 0.00 0.00 80 1023.5
20260510184739 55 68 15.6 22.6 0.00 0.00 0.00 80 1023.7
20260510184236 55 62 18.2 20.0 0.00 0.00 0.00 80 1023.6
20260510183731 55 54 22.6 25.2 0.00 0.00 0.00 80 1023.6
20260510183226 55 48 14.8 23.5 0.00 0.00 0.00 80 1023.4
20260510182723 55 54 11.3 18.2 0.00 0.00 0.00 80 1023.5
20260510182219 55 45 21.7 22.6 0.00 0.00 0.00 80 1023.2
20260510181716 55 29 13.9 21.7 0.00 0.00 0.00 80 1023.2
20260510181213 55 11 9.6 16.5 0.00 0.00 0.00 80 1023.1
20260510180709 55 34 8.7 18.2 0.00 0.00 0.00 81 1022.8
20260510180207 55 64 13.0 16.5 0.00 0.00 0.00 81 1022.5
20260510175702 55 44 13.0 21.7 0.00 0.00 0.00 82 1022.1
20260510175158 55 48 7.0 17.4 0.00 0.00 0.00 83 1022.0
20260510174655 54 30 14.8 21.7 0.00 0.00 0.00 84 1022.0
20260510174153 54 18 13.0 19.1 0.00 0.00 0.00 84 1022.0
20260510173649 54 40 10.4 18.2 0.00 0.00 0.00 84 1022.2
20260510173145 54 34 10.4 17.4 0.00 0.00 0.00 84 1022.1
20260510172640 54 29 7.8 18.2 0.00 0.00 0.00 84 1022.5
20260510172137 54 28 13.9 20.0 0.00 0.00 0.00 85 1022.2
20260510171634 54 30 10.4 17.4 0.00 0.00 0.00 86 1022.2
20260510171132 53 21 7.8 14.8 0.00 0.00 0.00 87 1022.2
20260510170628 53 25 10.4 20.9 0.00 0.00 0.00 90 1022.0
20260510170124 53 34 7.0 14.8 0.00 0.00 0.00 93 1022.0
20260510165620 52 21 10.4 12.2 0.00 0.00 0.00 94 1021.6
20260510165116 52 17 12.2 15.6 0.00 0.00 0.00 95 1021.7
20260510164614 51 23 10.4 14.8 0.00 0.00 0.00 95 1021.5
20260510164110 51 17 14.8 19.1 0.00 0.00 0.00 96 1021.6
20260510163605 51 27 9.6 18.2 0.00 0.00 0.00 96 1021.7
20260510163102 51 28 11.3 21.7 0.00 0.00 0.00 96 1021.7
20260510162557 51 32 7.8 20.9 0.00 0.00 0.00 96 1021.6
20260510162053 51 38 13.0 18.2 0.00 0.00 0.00 96 1021.7
20260510161549 51 23 10.4 17.4 0.00 0.00 0.00 96 1021.2
20260510161047 52 22 10.4 18.2 0.00 0.00 0.00 95 1020.9
20260510160543 52 2 8.7 14.8 0.00 0.00 0.00 95 1021.1
20260510160043 52 20 10.4 15.6 0.00 0.00 0.00 95 1021.0
20260510155539 53 13 10.4 15.6 0.00 0.00 0.00 95 1021.5
20260510155036 53 31 10.4 16.5 0.00 0.00 0.00 95 1021.4
20260510154531 53 30 11.3 17.4 0.00 0.00 0.00 94 1021.2
20260510154027 53 20 13.0 17.4 0.00 0.00 0.00 94 1021.1
20260510153522 54 48 17.4 20.9 0.00 0.00 0.00 93 1020.9
20260510153019 55 20 11.3 13.9 0.00 0.00 0.00 93 1020.7
20260510152516 55 48 12.2 19.1 0.00 0.00 0.00 92 1020.4
20260510152012 55 19 8.7 19.1 0.00 0.00 0.00 91 1020.4
20260510151509 56 40 12.2 24.3 0.00 0.00 0.00 89 1020.1
20260510151007 56 14 13.9 21.7 0.00 0.00 0.00 88 1019.9
20260510150502 57 26 13.9 17.4 0.00 0.00 0.00 86 1019.8
20260510145958 57 34 11.3 19.1 0.00 0.00 0.00 88 1019.7
20260510145455 56 25 13.9 22.6 0.00 0.00 0.00 91 1019.8
20260510144951 56 19 7.0 14.8 0.00 0.00 0.00 92 1019.8
20260510144447 55 30 13.0 19.1 0.00 0.00 0.00 92 1019.7
20260510143942 55 40 12.2 18.2 0.00 0.00 0.00 92 1019.6
20260510143439 55 10 13.0 19.1 0.00 0.00 0.00 91 1019.7
20260510142936 56 18 9.6 19.1 0.00 0.00 0.00 91 1019.7
20260510142427 56 30 14.8 19.1 0.00 0.00 0.00 89 1019.6
20260510141924 56 48 20.0 20.0 0.00 0.00 0.00 88 1019.6
20260510141420 57 32 11.3 21.7 0.00 0.00 0.00 87 1019.2
20260510140917 57 18 11.3 20.0 0.00 0.00 0.00 86 1019.6
20260510140414 57 0 12.2 23.5 0.00 0.00 0.00 86 1019.4
20260510135907 57 28 12.2 19.1 0.00 0.00 0.00 86 1019.1
20260510135404 57 16 13.0 22.6 0.00 0.00 0.00 86 1018.7
20260510134901 57 8 15.6 21.7 0.00 0.00 0.00 86 1018.7
20260510134357 57 21 11.3 16.5 0.00 0.00 0.00 87 1018.5
20260510133854 57 23 10.4 17.4 0.00 0.00 0.00 87 1018.4
20260510133350 57 38 18.2 23.5 0.00 0.00 0.00 87 1018.4
20260510132846 57 12 13.9 18.2 0.00 0.00 0.00 87 1018.5
20260510132344 57 14 11.3 22.6 0.00 0.00 0.00 87 1018.2
20260510131840 57 7 13.0 17.4 0.00 0.00 0.00 86 1017.9
20260510131338 57 17 12.2 16.5 0.00 0.00 0.00 86 1017.7
20260510130834 57 15 9.6 17.4 0.00 0.00 0.00 86 1017.5
20260510130332 57 22 12.2 18.2 0.00 0.00 0.00 85 1017.0
20260510125828 59 23 9.6 16.5 0.00 0.00 0.00 86 1017.1
20260510125324 60 20 8.7 13.0 0.00 0.00 0.00 85 1016.8
20260510124821 60 23 7.0 11.3 0.00 0.00 0.00 85 1016.8
20260510124318 60 26 7.0 16.5 0.00 0.00 0.00 85 1016.5
20260510123814 60 16 9.6 14.8 0.00 0.00 0.00 85 1016.5
20260510123309 60 36 7.8 12.2 0.00 0.00 0.00 84 1016.3
20260510122806 60 25 5.2 13.9 0.00 0.00 0.00 84 1016.1
20260510122306 60 50 6.1 13.0 0.00 0.00 0.00 84 1015.9
20260510121759 60 25 7.8 14.8 0.00 0.00 0.00 83 1015.7
20260510121256 60 42 8.7 14.8 0.00 0.00 0.00 83 1015.8
20260510120753 60 51 11.3 16.5 0.00 0.00 0.00 83 1015.3
20260510120250 60 71 13.0 16.5 0.00 0.00 0.00 83 1015.3
20260510115746 60 78 12.2 17.4 0.00 0.00 0.00 82 1015.1
20260510115244 61 60 10.4 13.9 0.00 0.00 0.00 82 1015.1
20260510114738 61 49 6.1 14.8 0.00 0.00 0.00 81 1015.6
20260510114237 61 57 8.7 15.6 0.00 0.00 0.00 81 1015.3
20260510113731 61 60 13.0 18.2 0.00 0.00 0.00 81 1015.0
20260510113228 61 78 11.3 19.1 0.00 0.00 0.00 80 1014.7
20260510112719 61 69 12.2 20.0 0.00 0.00 0.00 80 1014.8
20260510112216 61 79 15.6 18.2 0.00 0.00 0.00 80 1014.8
20260510111711 61 80 13.0 16.5 0.00 0.00 0.00 81 1014.8
20260510111208 61 76 13.9 16.5 0.00 0.00 0.00 81 1015.3
20260510110702 61 59 16.5 18.2 0.00 0.00 0.00 82 1014.9
20260510110200 61 61 12.2 15.6 0.00 0.00 0.00 83 1015.1
20260510105655 61 51 10.4 13.9 0.00 0.00 0.00 84 1014.9
20260510105155 60 60 7.8 12.2 0.00 0.00 0.00 85 1015.1
20260510104652 60 34 9.6 13.9 0.00 0.00 0.00 86 1015.1
20260510104149 60 61 12.2 14.8 0.00 0.00 0.00 86 1014.6
20260510103646 60 52 8.7 13.0 0.00 0.00 0.00 86 1014.5
20260510103143 60 33 7.8 9.6 0.00 0.00 0.00 86 1014.2
20260510102633 60 63 9.6 17.4 0.00 0.00 0.00 86 1013.9
20260510102129 60 77 13.0 16.5 0.00 0.00 0.00 86 1013.9
20260510101626 60 83 9.6 18.2 0.00 0.00 0.00 86 1013.6
20260510101124 60 71 11.3 15.6 0.00 0.00 0.00 85 1013.7
20260510100620 60 68 13.0 18.2 0.00 0.00 0.00 85 1013.7
20260510100118 60 69 14.8 15.6 0.00 0.00 0.00 85 1013.3
20260510095614 60 72 8.7 13.9 0.00 0.00 0.00 85 1013.8
20260510095114 60 46 7.8 9.6 0.00 0.00 0.00 85 1013.9
20260510094612 60 26 2.6 8.7 0.00 0.00 0.00 84 1013.9
20260510094108 60 38 5.2 8.7 0.00 0.00 0.00 84 1013.8
20260510093605 60 72 7.8 9.6 0.00 0.00 0.00 84 1013.6
20260510093102 60 76 7.0 9.6 0.00 0.00 0.00 84 1013.5
20260510092559 60 82 7.8 9.6 0.00 0.00 0.00 83 1012.9
20260510092058 60 79 7.8 11.3 0.00 0.00 0.00 83 1012.7
20260510091555 61 79 6.1 13.9 0.00 0.00 0.00 82 1012.6
20260510091051 61 80 7.8 12.2 0.00 0.00 0.00 82 1012.6
20260510090549 61 84 9.6 13.0 0.00 0.00 0.00 81 1012.3
20260510090044 61 87 7.0 9.6 0.00 0.00 0.00 80 1012.5
20260510085539 62 73 5.2 9.6 0.00 0.00 0.00 79 1012.7
20260510085035 62 62 4.3 7.8 0.00 0.00 0.00 79 1012.7
20260510084532 62 67 6.1 8.7 0.00 0.00 0.00 78 1012.8
20260510084029 62 60 7.0 10.4 0.00 0.00 0.00 77 1012.9
20260510083525 63 76 6.1 11.3 0.00 0.00 0.00 77 1012.8
20260510083021 63 91 6.1 11.3 0.00 0.00 0.00 77 1012.8
20260510082518 63 87 6.1 7.8 0.00 0.00 0.00 76 1012.9
20260510082018 63 79 7.0 12.2 0.00 0.00 0.00 76 1012.6
20260510081514 64 82 7.0 11.3 0.00 0.00 0.00 75 1012.8
20260510081010 64 93 6.1 13.0 0.00 0.00 0.00 75 1012.5
20260510080509 64 94 10.4 14.8 0.00 0.00 0.00 75 1012.5
20260510080006 64 94 14.8 17.4 0.00 0.00 0.00 74 1012.6
20260510075504 65 87 7.0 14.8 0.00 0.00 0.00 74 1012.2
20260510075000 65 99 12.2 16.5 0.00 0.00 0.00 74 1012.1
20260510074458 65 98 8.7 18.2 0.00 0.00 0.00 74 1012.1
20260510073953 65 89 7.0 14.8 0.00 0.00 0.00 74 1011.8
20260510073449 65 84 7.8 16.5 0.00 0.00 0.00 74 1011.5
20260510072946 66 67 7.8 14.8 0.00 0.00 0.00 73 1011.6
20260510072443 66 68 9.6 13.9 0.00 0.00 0.00 73 1011.8
20260510071938 66 47 8.7 14.8 0.00 0.00 0.00 73 1011.8
20260510071435 67 79 9.6 16.5 0.00 0.00 0.00 73 1011.9
20260510070933 67 60 8.7 13.0 0.00 0.00 0.00 73 1012.0
20260510070430 67 69 10.4 16.5 0.00 0.00 0.00 72 1011.8
20260510065926 67 71 11.3 15.6 0.00 0.00 0.00 72 1011.7
20260510065422 67 60 7.8 13.0 0.00 0.00 0.00 73 1011.8
20260510064918 67 69 11.3 14.8 0.00 0.00 0.00 72 1011.9
20260510064417 68 59 11.3 15.6 0.00 0.00 0.00 72 1011.8
20260510063913 68 54 8.7 14.8 0.00 0.00 0.00 72 1011.1
20260510063409 68 52 12.2 18.2 0.00 0.00 0.00 72 1011.6
20260510062907 68 70 13.9 16.5 0.00 0.00 0.00 72 1011.3
20260510062402 68 82 14.8 16.5 0.00 0.00 0.00 71 1011.7
20260510061858 68 92 11.3 16.5 0.00 0.00 0.00 71 1011.5
20260510061355 69 65 9.6 13.0 0.00 0.00 0.00 70 1011.5
20260510060850 69 61 14.8 18.2 0.00 0.00 0.00 68 1011.3
20260510060347 69 71 10.4 17.4 0.00 0.00 0.00 68 1011.1
20260510055843 70 74 13.0 20.9 0.00 0.00 0.00 67 1011.6
20260510055343 70 59 9.6 12.2 0.00 0.00 0.00 66 1012.0
20260510054837 70 49 6.1 7.8 0.00 0.00 0.00 65 1012.3
20260510054333 71 89 5.2 7.0 0.00 0.00 0.00 64 1011.8
20260510053827 71 67 8.7 13.9 0.00 0.00 0.00 63 1011.5
20260510053323 71 96 8.7 16.5 0.00 0.00 0.00 63 1010.9
20260510052820 72 111 7.0 21.7 0.00 0.00 0.00 61 1010.6
20260510052316 72 173 1.7 13.9 0.00 0.00 0.00 60 1010.8
20260510051812 72 64 9.6 11.3 0.00 0.00 0.00 59 1011.5
20260510051309 72 31 2.6 7.0 0.00 0.00 0.00 58 1011.3
20260510050805 72 69 8.7 12.2 0.00 0.00 0.00 58 1011.1
20260510050256 72 63 8.7 11.3 0.00 0.00 0.00 57 1011.0
20260510045753 72 86 5.2 8.7 0.00 0.00 0.00 54 1011.0
20260510045244 72 76 6.1 7.8 0.00 0.00 0.00 52 1010.9
20260510044742 73 32 4.3 7.0 0.00 0.00 0.00 50 1011.0
20260510044239 73 78 3.5 5.2 0.00 0.00 0.00 50 1010.9
20260510043734 72 85 3.5 4.3 0.00 0.00 0.00 51 1010.8
20260510043231 71 89 3.5 3.5 0.00 0.00 0.00 48 1011.0
20260510042729 71 193 3.5 4.3 0.00 0.00 0.00 46 1011.2
20260510042224 72 238 2.6 3.5 0.00 0.00 0.00 47 1011.1
20260510041721 72 324 2.6 3.5 0.00 0.00 0.00 43 1010.9
20260510041218 73 11 3.5 5.2 0.00 0.00 0.00 48 1010.9
20260510040715 73 79 3.5 7.0 0.00 0.00 0.00 46 1010.8
20260510040212 73 80 6.1 7.8 0.00 0.00 0.00 43 1010.7
20260510035707 74 63 5.2 7.8 0.00 0.00 0.00 39 1010.6
20260510035204 74 3 3.5 4.3 0.00 0.00 0.00 31 1010.8
20260510034700 75 1 3.5 6.1 0.00 0.00 0.00 22 1010.4
20260510034157 76 21 3.5 7.0 0.00 0.00 0.00 26 1010.2
20260510033653 76 49 3.5 5.2 0.00 0.00 0.00 21 1010.2
20260510033151 78 52 4.3 6.1 0.00 0.00 0.00 20 1010.2
20260510032647 79 60 6.1 12.2 0.00 0.00 0.00 19 1010.6
20260510032143 79 41 4.3 7.0 0.00 0.00 0.00 18 1010.4
20260510031637 80 23 1.7 2.6 0.00 0.00 0.00 18 1010.4
20260510031135 78 349 2.6 5.2 0.00 0.00 0.00 18 1010.3
20260510030629 75 219 2.6 9.6 0.00 0.00 0.00 19 1010.3
20260510030127 76 210 5.2 5.2 0.00 0.00 0.00 19 1009.8
20260510025624 76 337 1.7 2.6 0.00 0.00 0.00 19 1009.7
20260510025121 77 7 2.6 3.5 0.00 0.00 0.00 18 1009.4
20260510024618 77 29 2.6 3.5 0.00 0.00 0.00 18 1009.2
20260510024114 79 9 2.6 4.3 0.00 0.00 0.00 17 1008.9
20260510023610 79 70 2.6 6.1 0.00 0.00 0.00 17 1008.8
20260510023108 78 76 3.5 5.2 0.00 0.00 0.00 18 1008.6
20260510022607 78 66 4.3 4.3 0.00 0.00 0.00 18 1008.6
20260510022102 77 83 2.6 3.5 0.00 0.00 0.00 18 1008.6
20260510021559 78 91 3.5 4.3 0.00 0.00 0.00 17 1008.4
20260510021056 79 105 2.6 5.2 0.00 0.00 0.00 17 1008.3
20260510020556 79 97 3.5 4.3 0.00 0.00 0.00 17 1008.4
20260510020052 80 82 3.5 4.3 0.00 0.00 0.00 17 1008.3
20260510015548 80 85 2.6 5.2 0.00 0.00 0.00 17 1008.1
20260510015044 80 69 2.6 4.3 0.00 0.00 0.00 17 1008.1
20260510014540 81 86 3.5 4.3 0.00 0.00 0.00 16 1008.0
20260510014038 81 78 2.6 4.3 0.00 0.00 0.00 17 1007.9
20260510013532 82 77 3.5 3.5 0.00 0.00 0.00 16 1008.0
20260510013028 82 85 1.7 2.6 0.00 0.00 0.00 17 1008.0
20260510012522 82 85 2.6 3.5 0.00 0.00 0.00 16 1007.8
20260510012019 83 75 0.0 2.6 0.00 0.00 0.00 16 1007.7
20260510011519 85 52 2.6 4.3 0.00 0.00 0.00 15 1007.7
20260510011014 86 40 2.6 3.5 0.00 0.00 0.00 15 1007.8
20260510010512 87 7 2.6 3.5 0.00 0.00 0.00 14 1007.4
20260510010009 89 353 2.6 2.6 0.00 0.00 0.00 14 1007.7
20260510005504 89 357 2.6 2.6 0.00 0.00 0.00 14 1007.4
20260510005002 89 11 0.9 2.6 0.00 0.00 0.00 14 1007.4
20260510004459 89 56 2.6 3.5 0.00 0.00 0.00 13 1007.6
20260510003957 90 355 2.6 3.5 0.00 0.00 0.00 13 1007.4
20260510003454 90 358 4.3 5.2 0.00 0.00 0.00 13 1007.4
20260510002949 90 1 3.5 5.2 0.00 0.00 0.00 13 1007.7
20260510002445 90 325 7.0 9.6 0.00 0.00 0.00 12 1007.8
20260510001942 90 9 5.2 7.0 0.00 0.00 0.00 13 1007.8
20260510001439 91 309 4.3 8.7 0.00 0.00 0.00 11 1007.7
20260510000937 90 318 4.3 7.0 0.00 0.00 0.00 11 1007.6
20260510000433 90 303 5.2 8.7 0.00 0.00 0.00 11 1007.7
20260509235929 90 300 7.8 11.3 0.00 0.00 0.00 11 1007.8
20260509235426 91 306 5.2 9.6 0.00 0.00 0.00 12 1007.7
20260509234922 91 341 7.8 11.3 0.00 0.00 0.00 12 1007.8
20260509234419 91 329 8.7 10.4 0.00 0.00 0.00 11 1007.9
20260509233917 91 295 8.7 13.0 0.00 0.00 0.00 11 1007.8
20260509233414 91 335 6.1 7.0 0.00 0.00 0.00 11 1008.0
20260509232910 91 340 12.2 18.2 0.00 0.00 0.00 11 1008.0
20260509232403 91 327 3.5 8.7 0.00 0.00 0.00 12 1007.9
20260509231858 91 314 6.1 12.2 0.00 0.00 0.00 12 1008.1
20260509231355 91 322 7.0 10.4 0.00 0.00 0.00 12 1008.1
20260509230853 91 256 6.1 8.7 0.00 0.00 0.00 11 1007.9
20260509230350 90 297 8.7 13.0 0.00 0.00 0.00 11 1008.0
20260509225845 91 301 11.3 13.9 0.00 0.00 0.00 11 1008.0
20260509225342 90 298 5.2 10.4 0.00 0.00 0.00 11 1008.2
20260509224838 91 300 7.0 9.6 0.00 0.00 0.00 12 1008.2
20260509224334 91 291 7.0 15.6 0.00 0.00 0.00 13 1008.2
20260509223831 91 309 7.8 9.6 0.00 0.00 0.00 12 1008.0
20260509223328 91 283 5.2 9.6 0.00 0.00 0.00 12 1008.0
20260509222825 90 309 8.7 13.0 0.00 0.00 0.00 11 1008.2
20260509222320 91 322 5.2 17.4 0.00 0.00 0.00 12 1008.1
20260509221816 91 300 5.2 13.0 0.00 0.00 0.00 12 1008.2
20260509221313 91 299 5.2 13.9 0.00 0.00 0.00 14 1008.1
20260509220808 91 317 11.3 13.9 0.00 0.00 0.00 13 1008.2
20260509220305 90 288 7.0 14.8 0.00 0.00 0.00 14 1008.6
20260509215800 92 306 9.6 10.4 0.00 0.00 0.00 13 1008.1
20260509215257 91 286 5.2 13.9 0.00 0.00 0.00 15 1008.3
20260509214754 92 286 7.0 11.3 0.00 0.00 0.00 15 1008.2
20260509214251 91 239 5.2 11.3 0.00 0.00 0.00 15 1008.3
20260509213748 91 299 7.0 14.8 0.00 0.00 0.00 14 1008.7
20260509213244 90 227 4.3 8.7 0.00 0.00 0.00 14 1008.6
20260509212741 92 308 13.0 14.8 0.00 0.00 0.00 14 1008.4
20260509212239 91 277 7.0 17.4 0.00 0.00 0.00 14 1008.7
20260509211734 91 294 12.2 12.2 0.00 0.00 0.00 15 1008.6
20260509211231 91 271 5.2 14.8 0.00 0.00 0.00 17 1008.8
20260509210727 90 267 7.0 12.2 0.00 0.00 0.00 16 1008.8
20260509210225 90 289 8.7 13.0 0.00 0.00 0.00 17 1008.7
20260509205724 91 320 11.3 16.5 0.00 0.00 0.00 18 1008.8
20260509205224 91 297 4.3 9.6 0.00 0.00 0.00 17 1008.7
20260509204721 91 296 7.0 12.2 0.00 0.00 0.00 18 1009.0